Powrót do katalogu

COSMOS 1275 DEB

AktywnyPO
NORAD 12655·DEBRIS·🇷🇺 Russia

Wystrzelony Jun 4, 1981 z Plesetsk Cosmodrome

Loading…

Następne Przeloty (najbliższe 24 godziny)

TLE

ŚwieżeSource: Space-Track

Epoka: Sep 14, 2026, 13:00 UTC

1 12655U 81053K   26257.54209759  .00000108  00000-0  93582-4 0  9999
2 12655  82.9628 165.5558 0033054 175.5550 301.2956 13.76840495265695

Śledź COSMOS 1275 DEB w czasie rzeczywistym z AllMySat

Download on the App Store